Hanford, CA

5:25 AM PST on February 24, 2017 (GMT -0800)
Hanford Municipal

Weather History for KHJO - May, 2013

Change the Weather History Date:

Saturday, May 11, 2013

  Actual Average Record
Temperature  
Mean Temperature 78 °F 68 °F  
Max Temperature 96 °F 83 °F 100 °F (2001)
Min Temperature 60 °F 53 °F 39 °F (2010)
Degree Days  
Heating Degree Days 0    
Month to date heating degree days 2  
Since 1 July heating degree days 2320  
Cooling Degree Days 13    
Month to date cooling degree days 62  
Year to date cooling degree days 126  
Growing Degree Days 28 (Base 50)    
Moisture  
Dew Point 57 °F    
Average Humidity 56    
Maximum Humidity 84    
Minimum Humidity 28    
Precipitation  
Precipitation 0.00 in 0.02 in 0.17 in (1957)
Month to date precipitation 0.18 0.20  
Year to date precipitation 1.60 6.39  
Since 1 July precipitation 3.60  
Snow  
Snow 0.00 in - - ()
Month to date snowfall 0.0  
Since 1 July snowfall 0.0  
Snow Depth 0.00 in    
Sea Level Pressure  
Sea Level Pressure 30.05 in    
Wind  
Wind Speed 2 mph (NNW)    
Max Wind Speed 10 mph    
Max Gust Speed 14 mph    
Visibility 9 miles    
Events      
T = Trace of Precipitation, MM = Missing Value Source: NWS Daily Summary

Daily Weather History Graph

Daily Weather History Graph

Search for Another Location

Airport or City:

Trip Planner

Search our weather history database for the weather conditions in past years. The results will help you decide how hot, cold, wet, or windy it might be!

Date:

Astronomy

May. 11, 2013 Rise Set
Actual Time 5:55 AM PDT 7:55 PM PDT
Civil Twilight 5:26 AM PDT 8:23 PM PDT
Nautical Twilight 4:52 AM PDT 8:58 PM PDT
Astronomical Twilight 4:15 AM PDT 9:35 PM PDT
Moon 7:07 AM PDT (5/11) 9:38 PM PDT (5/11)
Length of Visible Light 14h 56m
Length of Day
14h 00m
Waxing Crescent, 3% of the Moon is Illuminated
May 11
Waxing Crescent
May 17
First Quarter
May 24
Full
May 31
Last Quarter
Jun 8
New

Hourly Weather History & Observations

Time (PDT) Temp. Heat Index Dew Point Humidity Pressure Visibility Wind Dir Wind Speed Gust Speed Precip Events Conditions
12:53 AM 66.9 °F - 57.9 °F 73% 30.09 in 10.0 mi Calm Calm - N/A   Clear
1:53 AM 66.9 °F - 57.0 °F 70% 30.09 in 10.0 mi Calm Calm - N/A   Clear
2:53 AM 63.0 °F - 57.0 °F 81% 30.09 in 8.0 mi Calm Calm - N/A   Clear
3:53 AM 62.1 °F - 57.0 °F 84% 30.09 in 8.0 mi Calm Calm - N/A   Clear
4:53 AM 64.0 °F - 57.0 °F 78% 30.08 in 9.0 mi Calm Calm - N/A   Clear
5:53 AM 61.0 °F - 55.9 °F 83% 30.09 in 8.0 mi East 3.5 mph - N/A   Clear
6:53 AM 64.0 °F - 57.9 °F 80% 30.10 in 5.0 mi Calm Calm - N/A   Haze
7:53 AM 70.0 °F - 57.9 °F 65% 30.10 in 7.0 mi Calm Calm - N/A   Clear
8:53 AM 73.0 °F - 57.0 °F 57% 30.11 in 8.0 mi Calm Calm - N/A   Clear
9:53 AM 79.0 °F - 57.0 °F 47% 30.10 in 9.0 mi Variable 3.5 mph - N/A   Clear
10:53 AM 84.0 °F 83.0 °F 55.9 °F 38% 30.09 in 9.0 mi Calm Calm - N/A   Clear
11:53 AM 87.1 °F 85.3 °F 55.0 °F 33% 30.09 in 10.0 mi Variable 3.5 mph - N/A   Clear
12:53 PM 89.1 °F 87.1 °F 55.0 °F 31% 30.07 in 10.0 mi Variable 4.6 mph - N/A   Clear
1:53 PM 91.0 °F 89.7 °F 57.0 °F 32% 30.04 in 10.0 mi Calm Calm - N/A   Clear
2:53 PM 93.9 °F 92.6 °F 57.0 °F 29% 30.02 in 10.0 mi NE 5.8 mph - N/A   Clear
3:53 PM 93.9 °F 92.0 °F 55.0 °F 27% 29.99 in 10.0 mi West 3.5 mph - N/A   Clear
4:53 PM 95.0 °F 94.4 °F 59.0 °F 30% 29.99 in 10.0 mi NNE 10.4 mph - N/A   Clear
5:53 PM 95.0 °F 93.7 °F 57.0 °F 28% 29.97 in 10.0 mi NNE 6.9 mph - N/A   Clear
7:53 PM 88.0 °F 86.5 °F 55.9 °F 34% 29.99 in 10.0 mi NNW 5.8 mph - N/A   Clear
8:53 PM 84.9 °F 84.4 °F 59.0 °F 41% 29.99 in 10.0 mi NNW 8.1 mph - N/A   Clear
9:53 PM 82.9 °F 82.8 °F 59.0 °F 44% 30.01 in 10.0 mi NW 9.2 mph - N/A   Clear
10:53 PM 82.0 °F 82.1 °F 59.0 °F 45% 30.02 in 10.0 mi NW 13.8 mph - N/A   Clear
11:53 PM 79.0 °F - 59.0 °F 50% 30.03 in 10.0 mi NW 10.4 mph - N/A   Clear